Precipitable_Water
1.06 0.76 0.77 0.78 0.79 0.81 0.78 0.61 0.44 0.94 0.92 0.51 0.43 0.28 0.32 0.50 0.44 0.42 0.32 0.28 0.26 0.22 0.26 0.24 0.22 0.20 0.26 0.36 0.34 0.29 0.35 0.32 0.26 0.31 0.36 0.35 0.31 0.25 0.22 0.13 0.11 0.16 0.14 0.11
0.98 0.77 0.80 0.81 0.81 0.81 0.70 0.53 0.59 0.96 0.72 0.36 0.32 0.34 0.40 0.48 0.41 0.37 0.33 0.31 0.35 0.36 0.31 0.27 0.31 0.31 0.40 0.42 0.37 0.32 0.35 0.28 0.23 0.25 0.30 0.34 0.26 0.26 0.23 0.20 0.19 0.12 0.10 0.10
0.89 0.81 0.82 0.82 0.82 0.83 0.77 0.58 0.46 0.67 0.63 0.44 0.34 0.33 0.38 0.41 0.48 0.41 0.40 0.37 0.40 0.36 0.34 0.40 0.36 0.33 0.38 0.43 0.43 0.42 0.37 0.29 0.25 0.19 0.21 0.25 0.20 0.23 0.24 0.20 0.13 0.11 0.12 0.12
0.80 0.82 0.82 0.83 0.82 0.86 0.79 0.61 0.49 0.56 0.39 0.34 0.33 0.39 0.39 0.39 0.38 0.44 0.44 0.38 0.36 0.33 0.31 0.36 0.37 0.42 0.41 0.46 0.49 0.44 0.34 0.22 0.26 0.27 0.27 0.25 0.20 0.18 0.19 0.16 0.16 0.11 0.11 0.12
0.82 0.81 0.83 0.83 0.83 0.91 0.76 0.53 0.48 0.51 0.41 0.37 0.32 0.39 0.38 0.37 0.43 0.40 0.34 0.33 0.38 0.39 0.32 0.34 0.36 0.41 0.40 0.36 0.43 0.40 0.38 0.23 0.24 0.21 0.26 0.25 0.19 0.20 0.19 0.19 0.19 0.17 0.17 0.14
0.82 0.81 0.83 0.83 0.83 0.88 0.73 0.76 0.63 0.46 0.41 0.36 0.31 0.35 0.39 0.40 0.46 0.46 0.42 0.36 0.35 0.35 0.40 0.47 0.50 0.50 0.44 0.40 0.35 0.34 0.30 0.25 0.21 0.16 0.22 0.20 0.15 0.16 0.17 0.18 0.18 0.18 0.14 0.15
0.80 0.81 0.84 0.83 0.83 0.87 0.80 0.75 0.61 0.39 0.32 0.34 0.31 0.35 0.43 0.42 0.43 0.39 0.42 0.38 0.31 0.39 0.52 0.50 0.49 0.46 0.43 0.41 0.36 0.34 0.24 0.22 0.20 0.14 0.14 0.08 0.12 0.20 0.19 0.17 0.18 0.20 0.19 0.21
0.80 0.83 0.85 0.83 0.85 0.89 0.87 0.81 0.63 0.45 0.31 0.34 0.34 0.35 0.39 0.50 0.49 0.41 0.39 0.42 0.45 0.51 0.45 0.37 0.34 0.35 0.38 0.38 0.41 0.38 0.33 0.24 0.17 0.13 0.12 0.13 0.13 0.16 0.16 0.17 0.14 0.21 0.20 0.25
0.84 0.86 0.86 0.81 0.85 0.92 0.94 0.85 0.80 0.57 0.36 0.31 0.37 0.34 0.39 0.40 0.39 0.40 0.42 0.50 0.52 0.46 0.37 0.33 0.25 0.23 0.29 0.26 0.32 0.43 0.39 0.35 0.26 0.20 0.13 0.10 0.13 0.20 0.28 0.26 0.13 0.23 0.27 0.29
0.87 0.87 0.85 0.82 0.83 0.92 0.88 0.81 0.82 0.68 0.47 0.49 0.42 0.34 0.32 0.47 0.41 0.35 0.42 0.43 0.43 0.47 0.33 0.28 0.26 0.26 0.31 0.24 0.22 0.25 0.28 0.29 0.22 0.20 0.17 0.17 0.20 0.25 0.31 0.13 0.13 0.24 0.28 0.29
0.88 0.87 0.84 0.80 0.82 0.87 0.81 0.83 0.90 0.69 0.58 0.57 0.56 0.48 0.39 0.40 0.42 0.32 0.43 0.42 0.44 0.40 0.31 0.30 0.29 0.27 0.29 0.27 0.28 0.26 0.23 0.21 0.20 0.21 0.18 0.13 0.27 0.28 0.19 0.24 0.29 0.30 0.33 0.35
0.88 0.87 0.82 0.80 0.81 0.82 0.82 0.72 0.94 0.96 0.72 0.59 0.69 0.66 0.70 0.59 0.52 0.43 0.50 0.46 0.44 0.46 0.38 0.34 0.32 0.28 0.30 0.26 0.19 0.32 0.22 0.26 0.21 0.21 0.18 0.26 0.29 0.28 0.34 0.36 0.34 0.36 0.39 0.44
0.92 0.88 0.82 0.78 0.78 0.79 0.80 0.82 0.98 0.91 0.75 0.64 0.65 0.63 0.80 0.85 0.78 0.76 0.47 0.52 0.56 0.49 0.50 0.40 0.36 0.26 0.30 0.21 0.23 0.26 0.30 0.33 0.25 0.24 0.24 0.26 0.32 0.36 0.38 0.41 0.41 0.45 0.47 0.48
0.94 0.90 0.82 0.76 0.78 0.82 0.84 0.87 0.98 0.87 0.73 0.57 0.62 0.88 0.78 0.88 0.84 0.75 0.69 0.61 0.62 0.57 0.51 0.39 0.34 0.28 0.36 0.28 0.30 0.27 0.29 0.30 0.27 0.26 0.29 0.33 0.34 0.38 0.42 0.43 0.46 0.47 0.51 0.54
0.93 0.85 0.86 0.83 0.83 0.85 0.86 0.87 0.93 0.88 0.60 0.52 0.61 0.75 0.82 0.85 0.81 0.74 0.71 0.64 0.57 0.50 0.43 0.40 0.37 0.41 0.38 0.39 0.35 0.26 0.33 0.29 0.27 0.25 0.35 0.36 0.38 0.46 0.50 0.48 0.50 0.54 0.55 0.54
0.94 0.91 0.91 0.91 0.93 0.88 0.81 0.69 0.81 0.80 0.75 0.56 0.50 0.73 0.75 0.81 0.80 0.73 0.69 0.67 0.63 0.59 0.53 0.49 0.50 0.51 0.40 0.31 0.27 0.36 0.42 0.45 0.46 0.40 0.49 0.50 0.52 0.55 0.58 0.55 0.56 0.56 0.56 0.57
0.93 0.90 0.89 0.86 0.85 0.82 0.64 0.57 0.70 0.70 0.63 0.44 0.43 0.49 0.67 0.76 0.74 0.72 0.70 0.72 0.64 0.59 0.52 0.45 0.44 0.44 0.46 0.38 0.29 0.40 0.46 0.50 0.54 0.58 0.56 0.49 0.54 0.51 0.56 0.56 0.57 0.60 0.62 0.65
0.85 0.85 0.80 0.80 0.81 0.80 0.70 0.76 0.75 0.68 0.49 0.44 0.33 0.34 0.44 0.64 0.50 0.46 0.58 0.50 0.52 0.50 0.46 0.47 0.41 0.46 0.44 0.33 0.41 0.47 0.50 0.53 0.56 0.56 0.59 0.57 0.56 0.58 0.58 0.62 0.62 0.61 0.60 0.61
0.80 0.80 0.78 0.70 0.63 0.57 0.65 0.74 0.69 0.62 0.44 0.31 0.31 0.25 0.24 0.51 0.44 0.47 0.48 0.50 0.37 0.49 0.40 0.42 0.45 0.39 0.34 0.39 0.43 0.47 0.51 0.52 0.52 0.54 0.56 0.59 0.59 0.60 0.60 0.60 0.59 0.57 0.56 0.56
0.77 0.69 0.57 0.51 0.66 0.76 0.69 0.56 0.46 0.45 0.47 0.45 0.34 0.42 0.33 0.45 0.44 0.41 0.41 0.45 0.38 0.32 0.39 0.49 0.40 0.37 0.46 0.49 0.51 0.53 0.55 0.58 0.58 0.54 0.53 0.56 0.56 0.57 0.57 0.56 0.55 0.52 0.50 0.48
0.69 0.62 0.61 0.74 0.79 0.63 0.54 0.45 0.42 0.44 0.39 0.46 0.47 0.46 0.40 0.54 0.41 0.40 0.46 0.39 0.39 0.29 0.35 0.36 0.34 0.34 0.43 0.52 0.53 0.57 0.59 0.61 0.61 0.61 0.60 0.59 0.56 0.53 0.50 0.48 0.47 0.46 0.43 0.39
0.78 0.76 0.79 0.75 0.63 0.55 0.48 0.45 0.49 0.45 0.41 0.51 0.48 0.49 0.51 0.51 0.55 0.44 0.45 0.37 0.39 0.30 0.45 0.38 0.32 0.41 0.51 0.54 0.56 0.58 0.59 0.59 0.57 0.56 0.52 0.51 0.49 0.48 0.46 0.42 0.38 0.35 0.34 0.31
0.82 0.72 0.66 0.62 0.60 0.46 0.42 0.37 0.41 0.42 0.50 0.52 0.51 0.46 0.51 0.52 0.53 0.45 0.43 0.37 0.36 0.47 0.38 0.35 0.40 0.48 0.52 0.54 0.54 0.52 0.53 0.51 0.49 0.48 0.47 0.44 0.41 0.39 0.35 0.32 0.31 0.30 0.27 0.27
0.59 0.53 0.44 0.45 0.42 0.44 0.44 0.44 0.44 0.48 0.49 0.49 0.50 0.47 0.47 0.51 0.47 0.48 0.39 0.44 0.45 0.35 0.32 0.33 0.43 0.49 0.51 0.53 0.52 0.46 0.42 0.41 0.39 0.37 0.36 0.36 0.34 0.32 0.31 0.29 0.27 0.25 0.23 0.24
0.55 0.53 0.41 0.43 0.47 0.50 0.50 0.52 0.51 0.53 0.57 0.55 0.52 0.52 0.53 0.50 0.47 0.48 0.45 0.39 0.34 0.35 0.33 0.40 0.47 0.49 0.48 0.47 0.42 0.40 0.38 0.37 0.37 0.37 0.35 0.33 0.31 0.29 0.26 0.26 0.26 0.26 0.26 0.26
0.57 0.52 0.45 0.49 0.47 0.47 0.51 0.53 0.52 0.59 0.59 0.60 0.56 0.48 0.45 0.43 0.44 0.40 0.38 0.35 0.31 0.35 0.41 0.45 0.47 0.46 0.46 0.44 0.43 0.41 0.43 0.41 0.38 0.37 0.35 0.32 0.28 0.25 0.25 0.26 0.26 0.25 0.24 0.22
0.49 0.47 0.54 0.52 0.51 0.50 0.52 0.55 0.55 0.62 0.55 0.46 0.47 0.39 0.37 0.43 0.35 0.33 0.37 0.32 0.36 0.42 0.43 0.45 0.45 0.44 0.45 0.46 0.44 0.42 0.39 0.38 0.37 0.34 0.29 0.26 0.26 0.25 0.22 0.19 0.19 0.19 0.19 0.18
Wind_Speed
50 50 47 45 42 40 38 33 27 30 29 23 23 23 21 17 14 15 16 14 11 12 11 9 9 11 11 10 10 10 10 8 8 8 7 8 8 8 7 5 6 5 5 8
51 50 49 46 44 43 37 33 27 29 29 25 25 23 21 17 15 16 16 13 10 9 10 8 9 10 10 10 9 10 12 8 8 7 8 9 10 9 8 6 7 8 6 9
53 51 48 45 44 44 37 32 27 28 28 26 28 25 22 18 16 15 14 13 10 8 7 7 8 9 9 9 9 8 9 10 10 11 9 8 10 11 10 9 9 9 12 13
53 50 47 45 44 44 38 32 28 30 29 29 28 25 24 20 16 14 12 11 10 10 7 7 8 9 9 8 10 9 10 10 10 10 9 10 10 10 12 13 12 13 14 16
52 49 46 45 45 44 36 31 28 28 23 31 27 26 25 22 17 14 12 11 9 8 8 9 11 10 10 10 9 9 10 10 9 11 10 11 13 14 14 15 15 19 18 22
49 47 45 44 46 43 35 30 27 28 27 30 29 27 25 23 19 13 11 11 8 7 7 7 7 7 7 8 9 10 9 10 9 11 11 12 14 17 19 17 18 19 20 21
46 44 43 44 46 42 33 29 27 26 29 27 30 28 25 23 19 16 11 9 7 8 8 7 5 4 4 4 5 8 9 9 9 10 10 12 14 14 15 19 20 22 21 20
44 42 42 43 45 40 31 29 27 26 26 29 27 28 25 22 18 15 12 10 9 10 6 5 5 6 6 6 6 7 8 9 9 10 12 16 16 15 16 17 20 20 22 21
40 40 41 42 44 37 30 28 26 25 26 28 26 28 26 23 20 15 12 10 12 8 7 6 6 8 9 8 8 9 9 9 10 11 12 14 14 14 16 17 20 19 18 19
37 38 39 42 43 36 30 27 26 24 24 24 27 26 27 23 20 17 15 15 12 10 8 7 7 8 8 8 9 9 9 11 12 12 15 18 18 17 15 15 18 17 17 18
35 35 38 41 42 36 29 25 25 24 24 23 25 25 24 23 22 18 18 14 13 11 9 8 9 8 9 8 9 10 11 10 12 11 13 17 13 13 15 19 21 21 22 23
32 34 37 39 40 36 29 25 24 23 23 23 24 23 20 21 22 20 18 16 14 14 10 11 9 9 9 10 11 12 13 14 13 15 15 17 20 22 22 23 24 24 26 27
31 32 34 36 37 35 29 26 24 22 21 21 22 21 19 17 18 19 17 17 15 14 13 12 12 12 12 12 14 13 15 15 17 17 18 22 24 26 27 27 27 28 28 28
29 30 33 35 35 32 29 26 23 20 20 20 21 20 19 17 18 18 17 17 15 14 14 14 14 14 16 15 15 16 17 16 19 22 25 25 24 25 27 27 28 28 27 27
28 29 32 32 33 31 27 25 21 20 19 19 21 19 16 15 16 15 15 15 15 16 15 15 16 16 16 18 18 19 19 20 21 23 24 25 26 26 26 26 26 26 25 24
28 28 29 29 32 31 22 22 20 19 19 16 18 18 17 16 15 14 14 15 15 16 16 17 17 18 18 17 19 18 20 21 23 25 26 27 28 27 27 26 25 23 22 21
26 26 27 28 29 26 21 18 19 18 17 15 15 15 17 16 16 16 16 16 16 17 17 18 18 18 19 19 20 21 22 23 24 24 25 24 24 26 24 22 21 20 20 19
26 25 25 24 24 22 18 16 16 17 16 15 15 14 15 15 16 16 16 17 17 17 18 18 18 19 19 20 20 22 23 24 22 23 24 24 22 21 21 20 19 18 18 18
23 22 22 19 17 16 16 15 15 14 14 14 14 14 15 15 15 15 15 16 16 18 18 18 19 19 19 19 21 22 24 24 25 21 20 19 19 18 18 17 17 17 18 19
20 18 15 14 14 15 14 13 13 12 13 12 12 13 13 13 14 14 15 16 16 17 18 18 18 19 17 19 20 21 22 21 18 19 19 18 18 17 16 17 18 19 21 23
15 14 13 15 13 12 11 11 11 11 11 11 12 12 12 13 14 14 15 15 16 16 17 17 18 18 18 18 18 19 18 17 16 16 15 14 15 16 18 19 21 23 25 26
14 15 13 12 11 10 10 11 11 9 10 10 11 12 13 13 14 14 15 15 16 16 16 16 17 16 16 16 16 15 14 13 12 13 13 15 17 19 21 23 25 26 27 28
13 11 12 12 13 11 12 12 11 11 11 11 11 12 13 13 14 14 14 15 16 15 17 17 16 15 15 14 14 14 14 15 15 17 18 20 22 23 24 25 26 28 28 29
12 11 11 11 11 12 12 11 11 12 12 12 12 12 12 13 13 14 13 15 15 16 17 16 16 15 15 15 16 16 17 19 20 21 22 23 24 25 26 26 27 28 28 30
11 11 11 12 12 12 11 12 12 12 13 13 12 12 13 13 13 13 13 13 15 16 16 16 16 16 16 17 18 19 20 21 22 23 24 25 25 26 26 27 27 28 30 32
11 10 10 11 12 12 12 12 12 13 13 12 12 12 11 12 12 12 14 14 17 17 17 16 17 17 18 19 19 20 21 23 24 24 25 25 26 25 26 27 29 32 34 36
11 11 10 10 9 9 9 10 10 10 10 10 11 11 12 12 13 14 16 17 17 17 17 17 16 17 18 19 20 22 23 23 24 24 24 25 25 26 28 30 34 36 37 39
Wind_Direction
201 199 198 198 196 193 190 189 192 190 189 191 193 188 187 187 189 183 186 179 181 185 191 196 203 207 217 217 218 212 217 211 213 218 219 224 216 209 212 225 241 272 283 288
193 193 193 193 192 189 187 188 190 188 190 190 188 187 187 186 185 183 182 183 185 189 194 204 214 211 215 214 212 211 213 220 213 228 234 230 225 223 230 238 260 256 265 284
190 190 190 191 189 187 186 186 188 189 192 191 185 184 185 182 183 183 181 184 188 189 205 221 208 207 214 216 218 215 212 217 218 220 229 225 226 229 235 246 260 262 268 283
186 187 188 188 187 186 186 189 192 190 192 190 186 186 185 182 184 185 184 188 197 201 207 214 212 210 212 221 217 223 218 220 224 232 238 239 239 238 237 248 260 262 279 274
183 184 186 186 185 185 187 189 189 190 188 187 185 189 190 184 185 186 189 185 197 209 211 215 213 207 221 226 222 220 224 222 229 236 247 251 253 253 253 261 268 272 279 282
180 182 184 185 184 184 187 190 189 188 191 188 188 191 188 187 183 185 191 191 201 215 221 219 217 217 215 217 214 216 224 224 236 250 259 262 267 253 253 264 268 272 273 281
178 181 183 184 184 185 187 189 189 188 191 190 192 191 191 190 194 191 199 202 209 220 189 188 196 191 187 199 222 226 224 234 248 254 263 264 269 266 270 266 274 270 281 282
178 181 182 182 183 185 189 190 190 191 191 193 191 191 193 190 195 200 206 216 214 187 203 209 219 241 239 240 241 247 243 238 256 258 262 278 277 274 272 274 284 275 274 280
178 180 181 182 182 185 187 188 188 190 188 197 192 194 197 196 198 204 209 208 193 207 216 223 223 229 231 240 246 249 253 260 261 266 270 274 280 286 283 283 287 288 281 281
178 180 181 182 183 185 187 188 190 190 190 193 193 195 198 199 202 206 206 203 214 219 225 230 233 239 243 242 241 251 263 270 265 272 275 284 284 287 286 289 289 291 287 287
176 178 180 182 183 185 186 186 190 192 192 193 195 196 198 202 206 207 209 210 224 224 230 235 240 244 245 253 255 256 258 261 270 278 281 287 282 288 284 290 291 291 289 290
173 176 178 181 183 185 185 187 186 186 189 192 190 191 197 205 208 209 212 219 220 223 232 242 244 252 257 263 267 269 270 267 276 267 279 284 285 289 291 292 291 292 293 294
169 172 175 178 180 183 185 182 182 184 184 187 190 196 199 201 206 210 214 224 225 232 241 242 253 258 261 264 269 274 276 276 280 285 287 285 286 291 290 290 288 290 292 292
164 168 171 173 175 178 181 180 182 187 185 190 197 199 202 212 212 217 222 221 228 233 245 253 258 263 265 270 275 276 282 280 282 285 290 291 291 292 294 293 292 292 293 291
155 159 164 169 172 173 177 181 187 189 192 194 196 200 207 211 211 214 218 222 233 243 251 257 261 265 269 276 278 281 280 282 283 287 293 291 294 297 297 296 295 293 293 295
148 153 159 165 167 171 171 180 188 190 192 192 198 205 210 215 217 220 229 237 243 249 254 260 265 269 271 274 277 286 289 289 288 290 293 293 295 297 298 297 298 296 294 293
145 150 154 161 168 174 179 185 188 191 195 200 201 211 217 222 226 232 240 246 250 255 259 264 266 270 271 275 278 291 293 294 294 295 295 295 302 299 301 300 300 300 299 298
144 147 149 155 161 171 181 185 190 196 198 205 209 219 220 229 233 238 247 249 254 261 262 266 269 272 275 277 288 292 294 294 294 299 299 297 298 301 302 300 300 301 299 298
153 152 157 162 169 180 186 193 197 198 207 212 218 216 225 232 236 242 249 254 258 263 264 268 270 273 275 283 288 293 295 293 293 297 299 299 302 302 303 303 303 301 299 297
158 163 169 177 180 183 190 199 205 211 218 219 219 224 229 236 240 246 252 259 261 264 267 271 272 276 277 286 290 293 298 298 290 296 298 299 301 302 302 301 299 298 298 300
166 171 174 172 180 186 194 200 206 218 218 226 227 232 235 246 245 249 257 260 266 266 269 269 274 277 281 286 292 295 299 301 302 300 299 300 299 299 299 299 299 300 300 302
172 169 173 189 197 202 204 212 218 223 225 234 234 239 243 247 251 254 259 262 265 268 270 272 276 282 282 287 291 296 299 302 302 300 298 299 301 302 303 303 303 303 303 304
200 206 208 214 222 216 216 217 231 234 240 242 240 247 252 252 255 258 259 261 265 267 271 276 284 276 282 285 289 292 297 300 301 301 302 302 303 304 305 305 305 305 306 306
200 206 205 213 217 225 231 234 237 242 244 243 245 250 255 255 255 258 261 265 266 269 272 277 279 274 276 280 284 289 294 298 299 301 302 304 305 305 306 306 306 307 308 309
212 220 223 227 228 235 240 240 241 246 245 247 248 254 257 258 258 262 261 267 268 273 276 279 277 275 276 279 285 290 294 297 300 302 303 304 306 306 307 309 310 311 312 312
222 227 229 232 238 243 244 243 243 246 245 248 253 253 256 257 256 259 261 266 272 276 278 280 277 278 279 279 286 290 294 297 300 302 303 304 306 307 308 309 312 312 312 311
226 232 232 234 232 233 235 238 242 242 243 247 253 258 257 262 267 268 269 271 275 275 276 279 278 278 281 285 286 292 294 297 299 301 304 305 306 307 308 310 311 312 312 313